OE6ATD-13 Weather Reports


Display with metric or nautical units.
time (UTC)temp
F
wind
direction
speed
MPH
gust
MPH
rain 1hr
in
rain 24hr
in
rain mn
in
humidity
%
barometer
mb
20260504200526 61 315 0.0 1.0 0.00 0.00 0.00 54 1012.7
20260504195522 62 0.0 0.0 0.00 0.00 0.00 53 1012.8
20260504194517 63 0.0 0.0 0.00 0.00 0.00 49 1012.8
20260504193528 64 0.0 0.0 0.00 0.00 0.00 47 1012.7
20260504192524 64 0.0 0.0 0.00 0.00 0.00 48 1012.6
20260504191520 64 0.0 0.0 0.00 0.00 0.00 49 1012.5
20260504190516 64 0.0 0.0 0.00 0.00 0.00 48 1012.5
20260504185527 65 0.0 0.0 0.00 0.00 0.00 47 1012.4
20260504184523 66 0.0 0.0 0.00 0.00 0.00 44 1012.3
20260504183518 68 0.0 0.0 0.00 0.00 0.00 41 1012.2
20260504182530 69 0.0 0.0 0.00 0.00 0.00 40 1012.0
20260504181525 71 0.0 0.0 0.00 0.00 0.00 40 1012.0
20260504180521 72 210 0.0 2.0 0.00 0.00 0.00 33 1012.0
20260504175517 73 247 0.0 4.0 0.00 0.00 0.00 32 1011.9
20260504174527 74 196 0.0 2.0 0.00 0.00 0.00 31 1011.9
20260504173522 76 208 0.0 2.0 0.00 0.00 0.00 33 1011.9
20260504172517 75 225 0.0 3.0 0.00 0.00 0.00 31 1011.9
20260504171528 76 291 0.0 2.0 0.00 0.00 0.00 31 1011.8
20260504170524 76 256 0.0 3.0 0.00 0.00 0.00 30 1011.8
20260504150525 85 242 2.0 5.0 0.00 0.00 0.00 20 1011.9
20260504140516 84 171 4.0 8.0 0.00 0.00 0.00 20 1012.5
20260504130520 81 180 4.0 8.0 0.00 0.00 0.00 24 1013.3
20260504110530 79 139 2.0 6.0 0.00 0.00 0.00 32 1014.5
20260504100519 76 183 3.0 7.0 0.00 0.00 0.00 36 1015.5
20260504081517 70 180 0.0 3.0 0.00 0.04 0.00 46 1016.4
20260504080528 69 195 1.0 5.0 0.00 0.04 0.00 47 1016.4
20260504050519 53 0.0 0.0 0.00 0.04 0.00 96 1016.2
20260504045515 51 0.0 0.0 0.00 0.04 0.00 96 1016.2
20260504044526 48 0.0 0.0 0.00 0.04 0.00 95 1016.0
20260504043522 47 0.0 0.0 0.00 0.04 0.00 95 1016.0
20260504042517 46 0.0 0.0 0.00 0.04 0.00 94 1016.1
20260504041528 45 0.0 0.0 0.00 0.04 0.00 93 1016.1
20260504040524 45 0.0 0.0 0.00 0.04 0.00 96 1016.0
20260504035520 45 0.0 0.0 0.00 0.04 0.00 95 1016.1
20260504034523 45 0.0 0.0 0.00 0.04 0.00 92 1015.9
20260504033518 45 0.0 0.0 0.00 0.04 0.00 92 1016.0
20260504032529 45 0.0 0.0 0.00 0.04 0.00 92 1016.0
20260504031525 45 0.0 0.0 0.00 0.04 0.00 92 1016.0
20260504030521 46 0.0 0.0 0.00 0.04 0.00 92 1015.9
20260504025517 46 0.0 0.0 0.00 0.04 0.00 92 1016.1
20260504024528 46 0.0 0.0 0.00 0.04 0.00 91 1016.1
20260504023523 46 0.0 0.0 0.00 0.04 0.00 90 1015.9
20260504022518 46 0.0 0.0 0.00 0.04 0.00 90 1016.0
20260504021529 46 0.0 0.0 0.00 0.04 0.00 90 1016.1
20260504020525 47 0.0 0.0 0.00 0.04 0.00 89 1016.0
20260504015521 47 0.0 0.0 0.00 0.04 0.00 88 1016.1
20260504014517 47 0.0 0.0 0.00 0.04 0.00 87 1016.0
20260504013528 48 0.0 0.0 0.00 0.04 0.00 86 1016.0
20260504012523 48 0.0 0.0 0.00 0.04 0.00 85 1016.0
20260504011519 49 0.0 0.0 0.00 0.04 0.00 85 1016.0
20260504010530 49 0.0 0.0 0.00 0.04 0.00 85 1016.1
20260504005525 50 0.0 0.0 0.00 0.04 0.00 85 1016.0
20260504004521 50 0.0 0.0 0.00 0.04 0.00 85 1016.0
20260504003524 50 0.0 0.0 0.00 0.04 0.00 85 1016.0
20260504002519 50 0.0 0.0 0.00 0.04 0.00 85 1016.0
20260504001515 50 0.0 0.0 0.00 0.04 0.00 85 1016.1
20260504000526 50 0.0 0.0 0.00 0.04 0.00 84 1016.0
20260503235522 50 0.0 0.0 0.00 0.04 0.00 85 1016.0
20260503234517 50 0.0 0.0 0.00 0.04 0.00 83 1016.0
20260503233529 51 0.0 0.0 0.00 0.04 0.00 83 1015.9
20260503232523 51 0.0 0.0 0.00 0.04 0.00 83 1015.8
20260503231519 51 0.0 0.0 0.00 0.04 0.00 82 1015.8
20260503230530 51 0.0 0.0 0.00 0.04 0.00 82 1015.8
20260503225526 51 0.0 0.0 0.00 0.04 0.00 81 1015.8
20260503224522 52 0.0 0.0 0.00 0.04 0.00 81 1015.8
20260503223518 52 0.0 0.0 0.00 0.04 0.00 80 1015.8
20260503222529 52 0.0 0.0 0.00 0.04 0.00 79 1015.9
20260503221524 52 0.0 0.0 0.00 0.04 0.00 78 1015.8
20260503220520 53 0.0 0.0 0.00 0.04 0.00 77 1015.8
20260503215516 53 0.0 0.0 0.00 0.04 0.04 76 1015.8
20260503214527 54 0.0 0.0 0.00 0.04 0.04 75 1015.8
20260503213523 54 0.0 0.0 0.00 0.04 0.04 72 1015.8
20260503212519 55 0.0 0.0 0.00 0.04 0.04 71 1015.9
20260503211529 55 0.0 0.0 0.00 0.04 0.04 71 1015.9
20260503210525 55 0.0 0.0 0.00 0.04 0.04 70 1015.8
20260503205521 56 0.0 0.0 0.00 0.04 0.04 68 1015.8
20260503204517 56 0.0 0.0 0.00 0.04 0.04 67 1015.9
20260503203528 57 0.0 0.0 0.00 0.04 0.04 65 1016.0
20260503202524 57 0.0 0.0 0.00 0.04 0.04 63 1015.9
20260503201519 58 0.0 0.0 0.00 0.04 0.04 62 1016.0